SEC Form N-18F1/A

[Amend] Initial notification of election pursuant to Rule 18f-1 filed on Form N-18F-1

Latest N-18F1/A Filings:

Date Accession No. Company
2019-06-14 00:00:00 0000894189-19-003623 Manager Directed Portfolios
2011-06-08 00:00:00 0001450791-11-000094 BRIDGEWAY FUNDS INC
2010-02-12 00:00:00 0000922423-10-000100 VICTORY PORTFOLIOS
2009-01-29 00:00:00 0000950123-09-001449 MASTER BOND LLC
2009-01-29 00:00:00 0000950123-09-001451 BLACKROCK BOND FUND, INC.
2009-01-29 00:00:00 0000950123-09-001450 BLACKROCK BALANCED CAPITAL FUND, INC.
2009-01-28 00:00:00 0000950123-09-001441 MASTER BOND LLC
2008-11-18 00:00:00 0000922423-08-001025 VICTORY PORTFOLIOS
2008-09-05 00:00:00 0001144204-08-051478 FEDERATED GLOBAL ALLOCATION FUND
2006-04-26 00:00:00 0000922423-06-000583 VICTORY VARIABLE INSURANCE FUNDS
2006-04-26 00:00:00 0000922423-06-000582 VICTORY PORTFOLIOS
2005-08-25 00:00:00 9999999997-05-036825 SCHWAB CAPITAL TRUST
2003-06-26 00:00:00 0000940394-03-000419 EATON VANCE MUTUAL FUNDS TRUST
2002-05-02 00:00:00 0000793769-02-000003 HARBOR FUNDS
2001-10-25 00:00:00 0001156976-01-500016 PIONEER GLOBAL INDUSTRIALS FUND
2001-10-25 00:00:00 0001156976-01-500014 PIONEER GLOBAL CONSUMERS FUND
2001-10-25 00:00:00 0001156976-01-500015 PIONEER GLOBAL ENERGY & UTILITIES FUND/DE/
2000-11-27 00:00:00 0000849486-00-502181 ALLEN TEST INC NAME CHANGED FOR 860 CUTOVER
2000-07-31 00:00:00 0001005477-00-005381 CREDIT SUISSE SELECT FUNDS
2000-07-31 00:00:00 0001005477-00-005384 CREDIT SUISSE OPPORTUNITY FUNDS
2000-06-19 00:00:00 0000922423-00-000865 VICTORY PORTFOLIOS
2000-05-31 00:00:00 0000894189-00-000353 KINETICS MUTUAL FUNDS INC
1998-11-02 00:00:00 0000828912-98-803012 ALLEN TEST CO & REL TEST 80 FOR VERSION D
1998-05-26 00:00:00 0000922423-98-000535 VICTORY PORTFOLIOS
1998-03-13 00:00:00 0001004402-98-000177 Monteagle Funds
1998-02-24 00:00:00 0000894579-98-000054 WESTPORT FUNDS
1997-12-23 00:00:00 0000943663-97-000335 MARSICO INVESTMENT FUND
1997-12-23 00:00:00 0000950130-97-005702 VanEck Funds
1997-12-23 00:00:00 0000950130-97-005703 VanEck VIP Trust
1997-08-15 00:00:00 0000922423-97-000671 VICTORY PORTFOLIOS

See other SEC forms